"Pseudo-MPEC" for ZTF10FL

Created 2026 Aug 26 0:35:13 UT using Find_Orb

Click here for an explanation of pseudo-MPECs

 
 Astrometry: 
     ZTF10FL*0C2026 08 08.27794921 26 20.543-01 45 33.12   ~8OFo 18.31RUNEOCPI41
     ZTF10FL 0C2026 08 08.27829621 26 19.855-01 45 22.14   ~8OFo 18.31RUNEOCPI41
     ZTF10FL 0C2026 08 08.31014621 25 21.023-01 29 22.66   ~8OFo       UNEOCPI41
     ZTF10FL 0C2026 08 08.31049321 25 20.314-01 29 12.28   ~8OFo       UNEOCPI41
     ZTF10FL 0C2026 08 08.33488621 24 35.433-01 16 59.24   ~8OFo 19.00gUNEOCPI41
     ZTF10FL 0C2026 08 08.33523321 24 34.715-01 16 47.65   ~8OFo 19.00gUNEOCPI41

Station data:
(I41) Palomar Mountain--ZTF  (N33.357336 W116.859780)  US/California.
   Observers B. T. Bolin, Z. T. F. Collaboration. Measurers B. T. Bolin,
   Z.-Y. Lin, F. J. Masci. 1.2-m f/2.4 Schmidt.

Orbital elements:  ZTF10FL
   Perihelion 2026 Dec 6.419981 +/- 96.1 TT = 10:04:46.3 (JD 2461380.919981)
Epoch 2026 Aug  8.0 TT = JDT 2461260.5   Earth MOID: 0.0109      AutoNEOCP
M 246.578040723 +/- 110             (J2000 ecliptic)
n   0.941886537 +/- 0.264           Peri.  123.206741 +/- 110
a   1.030711186 +/- 0.193           Node   315.039265 +/- 0.32
e   0.08928916 +/- 0.11             Incl.   42.244801 +/- 16
P   1.046/382.204d         H 23.78  G  0.15   U 11.9  SR
q 0.938679847 +/- 0.102    Q 1.122742525 +/- 0.518
From 6 observations 2026 Aug. 8 (82.5 min); mean residual 0".68
Residuals in arcseconds: 
260808 I41  .75+  .47-    260808 I41  .41-  .51+    260808 I41  1.1+  .85-    
260808 I41  .04+  .06+    260808 I41  1.4-  .44+    260808 I41  .05-  .30+    

Ephemerides (geocentric):
Date (UTC) HH   RA             Dec           delta  r     elong  mag " sig PA
---- --------  ------------   ------------  ------ ------ -----  --- --------
2026 08 26 01  17 21 00.410   +43 46 29.11  .22187 1.0490  93.8 23.2 396'  60
2026 08 26 02  17 20 50.487   +43 47 12.26  .22233 1.0489  93.7 23.2 397'  60
2026 08 26 03  17 20 40.605   +43 47 55.15  .22279 1.0488  93.7 23.2 397'  60
2026 08 26 04  17 20 30.763   +43 48 37.81  .22325 1.0488  93.7 23.2 397'  60
2026 08 26 05  17 20 20.963   +43 49 20.22  .22371 1.0487  93.6 23.2 397'  60
2026 08 26 06  17 20 11.203   +43 50 02.39  .22417 1.0486  93.6 23.2 398'  61
2026 08 26 07  17 20 01.483   +43 50 44.33  .22463 1.0486  93.5 23.2 398'  61
2026 08 26 08  17 19 51.803   +43 51 26.02  .22509 1.0485  93.5 23.2 398'  61
2026 08 26 09  17 19 42.163   +43 52 07.49  .22555 1.0485  93.4 23.2 398'  61
2026 08 26 10  17 19 32.563   +43 52 48.72  .22601 1.0484  93.4 23.2 399'  61
2026 08 26 11  17 19 23.002   +43 53 29.72  .22647 1.0483  93.3 23.3 399'  61
2026 08 26 12  17 19 13.480   +43 54 10.49  .22693 1.0483  93.3 23.3 399'  61
2026 08 26 13  17 19 03.997   +43 54 51.03  .22739 1.0482  93.2 23.3 399'  61
2026 08 26 14  17 18 54.553   +43 55 31.35  .22785 1.0482  93.2 23.3 400'  61
2026 08 26 15  17 18 45.148   +43 56 11.45  .22831 1.0481  93.1 23.3 400'  61
2026 08 26 16  17 18 35.780   +43 56 51.32  .22877 1.0480  93.1 23.3 400'  61
2026 08 26 17  17 18 26.451   +43 57 30.97  .22923 1.0480  93.0 23.3 400'  61
2026 08 26 18  17 18 17.159   +43 58 10.41  .22969 1.0479  93.0 23.3 401'  61
2026 08 26 19  17 18 07.906   +43 58 49.63  .23015 1.0479  93.0 23.3 401'  61
2026 08 26 20  17 17 58.689   +43 59 28.63  .23061 1.0478  92.9 23.3 401'  61
2026 08 26 21  17 17 49.510   +44 00 07.41  .23107 1.0477  92.9 23.3 401'  61
2026 08 26 22  17 17 40.368   +44 00 45.99  .23153 1.0477  92.8 23.3 402'  61
2026 08 26 23  17 17 31.263   +44 01 24.36  .23199 1.0476  92.8 23.3 402'  61
2026 08 27 00  17 17 22.194   +44 02 02.51  .23245 1.0476  92.7 23.3 402'  61
2026 08 27 01  17 17 13.162   +44 02 40.46  .23291 1.0475  92.7 23.3 402'  61
2026 08 27 02  17 17 04.166   +44 03 18.20  .23337 1.0474  92.6 23.3 403'  61
2026 08 27 03  17 16 55.206   +44 03 55.74  .23383 1.0474  92.6 23.3 403'  61
2026 08 27 04  17 16 46.282   +44 04 33.08  .23429 1.0473  92.6 23.3 403'  61
2026 08 27 05  17 16 37.394   +44 05 10.21  .23475 1.0472  92.5 23.3 403'  61
2026 08 27 06  17 16 28.541   +44 05 47.15  .23521 1.0472  92.5 23.3 404'  61
2026 08 27 07  17 16 19.723   +44 06 23.88  .23567 1.0471  92.4 23.3 404'  61
2026 08 27 08  17 16 10.940   +44 07 00.42  .23613 1.0471  92.4 23.4 404'  61
2026 08 27 09  17 16 02.193   +44 07 36.77  .23659 1.0470  92.3 23.4 404'  61
2026 08 27 10  17 15 53.479   +44 08 12.92  .23705 1.0469  92.3 23.4 404'  61
2026 08 27 11  17 15 44.801   +44 08 48.88  .23750 1.0469  92.2 23.4 405'  61
2026 08 27 12  17 15 36.156   +44 09 24.65  .23796 1.0468  92.2 23.4 405'  61
2026 08 27 13  17 15 27.546   +44 10 00.22  .23842 1.0468  92.2 23.4 405'  61
2026 08 27 14  17 15 18.970   +44 10 35.61  .23888 1.0467  92.1 23.4 405'  61
2026 08 27 15  17 15 10.427   +44 11 10.81  .23934 1.0466  92.1 23.4 406'  61
2026 08 27 16  17 15 01.918   +44 11 45.83  .23980 1.0466  92.0 23.4 406'  61
2026 08 27 17  17 14 53.443   +44 12 20.66  .24026 1.0465  92.0 23.4 406'  61
2026 08 27 18  17 14 45.000   +44 12 55.31  .24072 1.0465  91.9 23.4 406'  61
2026 08 27 19  17 14 36.591   +44 13 29.78  .24118 1.0464  91.9 23.4 407'  61
2026 08 27 20  17 14 28.214   +44 14 04.07  .24163 1.0463  91.9 23.4 407'  61
2026 08 27 21  17 14 19.870   +44 14 38.18  .24209 1.0463  91.8 23.4 407'  61
2026 08 27 22  17 14 11.559   +44 15 12.11  .24255 1.0462  91.8 23.4 407'  61
2026 08 27 23  17 14 03.280   +44 15 45.87  .24301 1.0461  91.7 23.4 407'  61
2026 08 28 00  17 13 55.033   +44 16 19.45  .24347 1.0461  91.7 23.4 408'  61